Time,TemperatureF,DewpointF,PressureIn,WindDirection,WindDirectionDegrees,WindSpeedMPH,WindSpeedGustMPH,Humidity,HourlyPrecipIn,Conditions,Clouds,dailyrainin,SolarRadiationWatts/m^2,SoftwareType,DateUTC
2013-04-19 00:07:00,60.0,49.0,30.00,NNE,30,13.0,-999.0,66,-99.99,,,0.00,0,weatherlink.com 1.10,2013-04-19 05:07:00,
2013-04-19 00:22:00,59.7,48.0,30.01,NE,35,9.0,-999.0,65,-99.99,,,0.00,0,weatherlink.com 1.10,2013-04-19 05:22:00,
2013-04-19 00:37:00,59.6,48.0,30.01,NNE,17,11.0,-999.0,65,-99.99,,,0.00,0,weatherlink.com 1.10,2013-04-19 05:37:00,
2013-04-19 00:52:00,59.5,48.0,30.02,NNE,16,14.0,-999.0,65,-99.99,,,0.00,0,weatherlink.com 1.10,2013-04-19 05:52:00,
2013-04-19 01:07:00,59.4,48.0,30.04,NE,36,13.0,-999.0,65,-99.99,,,0.00,0,weatherlink.com 1.10,2013-04-19 06:07:00,
2013-04-19 01:22:00,59.2,47.0,30.05,NNE,14,11.0,-999.0,65,-99.99,,,0.00,0,weatherlink.com 1.10,2013-04-19 06:22:00,
2013-04-19 01:37:00,59.3,47.0,30.05,NNE,17,15.0,-999.0,63,-99.99,,,0.00,0,weatherlink.com 1.10,2013-04-19 06:37:00,
2013-04-19 01:52:00,59.3,46.0,30.06,NNW,344,15.0,-999.0,62,-99.99,,,0.00,0,weatherlink.com 1.10,2013-04-19 06:52:00,
2013-04-19 02:07:00,59.2,46.0,30.07,North,11,10.0,-999.0,62,-99.99,,,0.00,0,weatherlink.com 1.10,2013-04-19 07:07:00,
2013-04-19 02:22:00,59.0,46.0,30.06,NNE,21,6.0,-999.0,62,-99.99,,,0.00,0,weatherlink.com 1.10,2013-04-19 07:22:00,
2013-04-19 02:37:00,58.8,45.0,30.06,North,5,10.0,-999.0,61,-99.99,,,0.00,0,weatherlink.com 1.10,2013-04-19 07:37:00,
2013-04-19 02:52:00,58.8,45.0,30.05,North,5,13.0,-999.0,60,-99.99,,,0.00,0,weatherlink.com 1.10,2013-04-19 07:52:00,
2013-04-19 03:07:00,58.7,44.0,30.06,NNE,19,13.0,-999.0,59,-99.99,,,0.00,0,weatherlink.com 1.10,2013-04-19 08:07:00,
2013-04-19 03:22:00,58.7,44.0,30.06,NNE,18,15.0,-999.0,59,-99.99,,,0.00,0,weatherlink.com 1.10,2013-04-19 08:22:00,
2013-04-19 03:37:00,58.6,44.0,30.07,NE,34,13.0,-999.0,59,-99.99,,,0.00,0,weatherlink.com 1.10,2013-04-19 08:37:00,
2013-04-19 03:53:00,58.4,43.0,30.07,NNE,22,21.0,-999.0,58,-99.99,,,0.00,0,weatherlink.com 1.10,2013-04-19 08:53:00,
2013-04-19 04:08:00,58.1,43.0,30.07,North,360,10.0,-999.0,58,-99.99,,,0.00,0,weatherlink.com 1.10,2013-04-19 09:08:00,
2013-04-19 04:23:00,57.8,43.0,30.08,NNE,24,16.0,-999.0,58,-99.99,,,0.00,0,weatherlink.com 1.10,2013-04-19 09:23:00,
2013-04-19 04:38:00,57.6,42.0,30.08,NE,34,15.0,-999.0,57,-99.99,,,0.00,0,weatherlink.com 1.10,2013-04-19 09:38:00,
2013-04-19 04:53:00,57.4,43.0,30.08,NE,49,10.0,-999.0,58,-99.99,,,0.00,0,weatherlink.com 1.10,2013-04-19 09:53:00,
2013-04-19 05:08:00,57.3,41.0,30.09,NNE,19,7.0,-999.0,55,-99.99,,,0.00,0,weatherlink.com 1.10,2013-04-19 10:08:00,
2013-04-19 05:23:00,56.9,40.0,30.09,NNE,17,16.0,-999.0,54,-99.99,,,0.00,0,weatherlink.com 1.10,2013-04-19 10:23:00,
2013-04-19 05:38:00,56.5,40.0,30.10,NNE,26,12.0,-999.0,54,-99.99,,,0.00,0,weatherlink.com 1.10,2013-04-19 10:38:00,
2013-04-19 05:53:00,56.2,40.0,30.11,NNE,25,9.0,-999.0,56,-99.99,,,0.00,0,weatherlink.com 1.10,2013-04-19 10:53:00,
2013-04-19 06:08:00,56.0,40.0,30.11,NNE,18,13.0,-999.0,55,-99.99,,,0.00,0,weatherlink.com 1.10,2013-04-19 11:08:00,
2013-04-19 06:23:00,55.8,39.0,30.12,NE,41,11.0,-999.0,53,-99.99,,,0.00,0,weatherlink.com 1.10,2013-04-19 11:23:00,
2013-04-19 06:38:00,55.7,40.0,30.12,NE,52,17.0,-999.0,55,-99.99,,,0.00,0,weatherlink.com 1.10,2013-04-19 11:38:00,
2013-04-19 06:53:00,55.5,40.0,30.14,NE,38,12.0,-999.0,56,-99.99,,,0.00,0,weatherlink.com 1.10,2013-04-19 11:53:00,
2013-04-19 07:08:00,55.2,39.0,30.14,NE,34,11.0,-999.0,55,-99.99,,,0.00,0,weatherlink.com 1.10,2013-04-19 12:08:00,
2013-04-19 07:23:00,55.0,38.0,30.15,North,5,13.0,-999.0,54,-99.99,,,0.00,7,weatherlink.com 1.10,2013-04-19 12:23:00,
2013-04-19 07:38:00,54.8,39.0,30.15,NNE,16,9.0,-999.0,55,-99.99,,,0.00,9,weatherlink.com 1.10,2013-04-19 12:38:00,
2013-04-19 07:53:00,54.6,38.0,30.16,North,360,13.0,-999.0,54,-99.99,,,0.00,23,weatherlink.com 1.10,2013-04-19 12:53:00,
2013-04-19 08:08:00,53.6,40.0,30.17,NNE,19,12.0,-999.0,60,-99.99,,,0.00,30,weatherlink.com 1.10,2013-04-19 13:08:00,
2013-04-19 08:23:00,53.8,39.0,30.19,NNE,15,8.0,-999.0,58,-99.99,,,0.00,14,weatherlink.com 1.10,2013-04-19 13:23:00,
2013-04-19 08:38:00,53.8,39.0,30.20,NNE,19,5.0,-999.0,57,-99.99,,,0.00,30,weatherlink.com 1.10,2013-04-19 13:38:00,
2013-04-19 08:53:00,53.8,38.0,30.21,NNE,18,9.0,-999.0,55,-99.99,,,0.00,33,weatherlink.com 1.10,2013-04-19 13:53:00,
2013-04-19 09:08:00,54.0,38.0,30.21,NNE,17,5.0,-999.0,55,-99.99,,,0.00,70,weatherlink.com 1.10,2013-04-19 14:08:00,
2013-04-19 09:23:00,54.5,36.0,30.21,NE,34,10.0,-999.0,51,-99.99,,,0.00,62,weatherlink.com 1.10,2013-04-19 14:23:00,
2013-04-19 09:38:00,54.5,35.0,30.21,NE,34,20.0,-999.0,48,-99.99,,,0.00,76,weatherlink.com 1.10,2013-04-19 14:38:00,
2013-04-19 09:53:00,54.7,36.0,30.21,NNE,14,12.0,-999.0,49,-99.99,,,0.00,90,weatherlink.com 1.10,2013-04-19 14:53:00,
2013-04-19 10:09:00,55.0,37.0,30.23,NE,34,6.0,-999.0,52,-99.99,,,0.00,69,weatherlink.com 1.10,2013-04-19 15:09:00,
2013-04-19 10:24:00,55.0,35.0,30.25,NNW,332,6.0,-999.0,48,-99.99,,,0.00,111,weatherlink.com 1.10,2013-04-19 15:24:00,
2013-04-19 10:39:00,55.6,36.0,30.25,NNE,30,9.0,-999.0,48,-99.99,,,0.00,229,weatherlink.com 1.10,2013-04-19 15:39:00,
2013-04-19 10:54:00,56.4,36.0,30.25,North,9,9.0,-999.0,46,-99.99,,,0.00,251,weatherlink.com 1.10,2013-04-19 15:54:00,
2013-04-19 11:09:00,57.2,35.0,30.26,NE,34,10.0,-999.0,43,-99.99,,,0.00,267,weatherlink.com 1.10,2013-04-19 16:09:00,
2013-04-19 11:24:00,57.8,35.0,30.26,North,5,12.0,-999.0,42,-99.99,,,0.00,257,weatherlink.com 1.10,2013-04-19 16:24:00,
2013-04-19 11:39:00,58.0,34.0,30.26,NE,46,13.0,-999.0,40,-99.99,,,0.00,295,weatherlink.com 1.10,2013-04-19 16:39:00,
2013-04-19 12:09:00,58.5,33.0,30.26,NNW,341,11.0,-999.0,38,-99.99,,,0.00,308,weatherlink.com 1.10,2013-04-19 17:09:00,
2013-04-19 12:24:00,58.4,32.0,30.25,North,5,14.0,-999.0,37,-99.99,,,0.00,267,weatherlink.com 1.10,2013-04-19 17:24:00,
2013-04-19 12:39:00,58.8,32.0,30.25,NNE,32,7.0,-999.0,37,-99.99,,,0.00,355,weatherlink.com 1.10,2013-04-19 17:39:00,
2013-04-19 12:54:00,59.0,31.0,30.25,North,5,13.0,-999.0,35,-99.99,,,0.00,297,weatherlink.com 1.10,2013-04-19 17:54:00,
2013-04-19 13:09:00,58.8,32.0,30.24,NNE,28,11.0,-999.0,36,-99.99,,,0.00,364,weatherlink.com 1.10,2013-04-19 18:09:00,
2013-04-19 13:24:00,60.1,32.0,30.24,NNE,30,6.0,-999.0,35,-99.99,,,0.00,990,weatherlink.com 1.10,2013-04-19 18:24:00,
2013-04-19 13:39:00,61.6,34.0,30.23,NNE,24,12.0,-999.0,35,-99.99,,,0.00,925,weatherlink.com 1.10,2013-04-19 18:39:00,
2013-04-19 13:54:00,62.0,33.0,30.22,NE,50,7.0,-999.0,34,-99.99,,,0.00,923,weatherlink.com 1.10,2013-04-19 18:54:00,
2013-04-19 14:09:00,62.5,34.0,30.21,NE,36,5.0,-999.0,34,-99.99,,,0.00,909,weatherlink.com 1.10,2013-04-19 19:09:00,
2013-04-19 14:24:00,63.0,34.0,30.20,NE,40,5.0,-999.0,34,-99.99,,,0.00,896,weatherlink.com 1.10,2013-04-19 19:24:00,
2013-04-19 14:39:00,64.0,35.0,30.19,North,5,4.0,-999.0,34,-99.99,,,0.00,875,weatherlink.com 1.10,2013-04-19 19:39:00,
2013-04-19 14:54:00,65.6,36.0,30.18,NNE,22,6.0,-999.0,34,-99.99,,,0.00,840,weatherlink.com 1.10,2013-04-19 19:54:00,
2013-04-19 15:09:00,65.6,36.0,30.17,SE,133,1.0,-999.0,34,-99.99,,,0.00,828,weatherlink.com 1.10,2013-04-19 20:09:00,
2013-04-19 15:24:00,67.0,37.0,30.16,ENE,69,2.0,-999.0,33,-99.99,,,0.00,802,weatherlink.com 1.10,2013-04-19 20:24:00,
2013-04-19 15:39:00,67.4,36.0,30.15,South,187,2.0,-999.0,31,-99.99,,,0.00,773,weatherlink.com 1.10,2013-04-19 20:39:00,
2013-04-19 15:54:00,69.0,38.0,30.14,NE,47,7.0,-999.0,32,-99.99,,,0.00,742,weatherlink.com 1.10,2013-04-19 20:54:00,
2013-04-19 16:09:00,69.0,38.0,30.13,East,96,7.0,-999.0,32,-99.99,,,0.00,705,weatherlink.com 1.10,2013-04-19 21:09:00,
2013-04-19 16:24:00,69.3,37.0,30.12,NE,43,2.0,-999.0,31,-99.99,,,0.00,659,weatherlink.com 1.10,2013-04-19 21:24:00,
2013-04-19 16:39:00,69.9,34.0,30.11,NNW,332,2.0,-999.0,27,-99.99,,,0.00,619,weatherlink.com 1.10,2013-04-19 21:39:00,
2013-04-19 16:54:00,70.0,35.0,30.11,NNW,338,3.0,-999.0,28,-99.99,,,0.00,580,weatherlink.com 1.10,2013-04-19 21:54:00,
2013-04-19 17:09:00,70.3,37.0,30.10,ESE,119,1.0,-999.0,30,-99.99,,,0.00,527,weatherlink.com 1.10,2013-04-19 22:09:00,
2013-04-19 17:25:00,71.8,39.0,30.10,ESE,113,3.0,-999.0,30,-99.99,,,0.00,480,weatherlink.com 1.10,2013-04-19 22:25:00,
2013-04-19 17:40:00,70.1,42.0,30.10,ESE,122,4.0,-999.0,36,-99.99,,,0.00,429,weatherlink.com 1.10,2013-04-19 22:40:00,
2013-04-19 17:55:00,68.8,43.0,30.10,ESE,117,6.0,-999.0,39,-99.99,,,0.00,369,weatherlink.com 1.10,2013-04-19 22:55:00,
2013-04-19 18:10:00,68.8,43.0,30.10,ESE,109,1.0,-999.0,39,-99.99,,,0.00,318,weatherlink.com 1.10,2013-04-19 23:10:00,
2013-04-19 18:25:00,68.6,43.0,30.10,East,95,1.0,-999.0,40,-99.99,,,0.00,264,weatherlink.com 1.10,2013-04-19 23:25:00,
2013-04-19 18:40:00,68.6,44.0,30.10,South,184,7.0,-999.0,42,-99.99,,,0.00,211,weatherlink.com 1.10,2013-04-19 23:40:00,
2013-04-19 18:55:00,66.8,45.0,30.11,SE,140,2.0,-999.0,45,-99.99,,,0.00,160,weatherlink.com 1.10,2013-04-19 23:55:00,
2013-04-19 19:10:00,66.2,45.0,30.11,SSE,153,3.0,-999.0,47,-99.99,,,0.00,111,weatherlink.com 1.10,2013-04-20 00:10:00,
2013-04-19 19:25:00,65.0,45.0,30.11,SSE,149,6.0,-999.0,49,-99.99,,,0.00,65,weatherlink.com 1.10,2013-04-20 00:25:00,
2013-04-19 19:40:00,64.0,45.0,30.11,SE,137,4.0,-999.0,51,-99.99,,,0.00,25,weatherlink.com 1.10,2013-04-20 00:40:00,
2013-04-19 19:55:00,62.3,45.0,30.12,SE,130,1.0,-999.0,54,-99.99,,,0.00,7,weatherlink.com 1.10,2013-04-20 00:55:00,
2013-04-19 20:10:00,60.6,45.0,30.12,SSE,150,0.0,-999.0,57,-99.99,,,0.00,0,weatherlink.com 1.10,2013-04-20 01:10:00,
2013-04-19 20:25:00,59.1,45.0,30.12,SSE,150,0.0,-999.0,60,-99.99,,,0.00,0,weatherlink.com 1.10,2013-04-20 01:25:00,
2013-04-19 20:40:00,57.8,45.0,30.13,SE,144,1.0,-999.0,62,-99.99,,,0.00,0,weatherlink.com 1.10,2013-04-20 01:40:00,
2013-04-19 20:55:00,56.6,45.0,30.13,SE,144,0.0,-999.0,65,-99.99,,,0.00,0,weatherlink.com 1.10,2013-04-20 01:55:00,
2013-04-19 21:10:00,55.7,45.0,30.14,SE,146,1.0,-999.0,67,-99.99,,,0.00,0,weatherlink.com 1.10,2013-04-20 02:10:00,
2013-04-19 21:25:00,54.9,44.0,30.15,SE,145,0.0,-999.0,68,-99.99,,,0.00,0,weatherlink.com 1.10,2013-04-20 02:25:00,
2013-04-19 21:40:00,54.4,45.0,30.15,SE,145,0.0,-999.0,70,-99.99,,,0.00,0,weatherlink.com 1.10,2013-04-20 02:40:00,
2013-04-19 21:55:00,54.0,45.0,30.16,SE,145,0.0,-999.0,71,-99.99,,,0.00,0,weatherlink.com 1.10,2013-04-20 02:55:00,
2013-04-19 22:10:00,53.6,45.0,30.16,SE,146,0.0,-999.0,72,-99.99,,,0.00,0,weatherlink.com 1.10,2013-04-20 03:10:00,
2013-04-19 22:25:00,53.4,45.0,30.16,SE,146,0.0,-999.0,73,-99.99,,,0.00,0,weatherlink.com 1.10,2013-04-20 03:25:00,
2013-04-19 22:40:00,53.6,46.0,30.16,SE,146,0.0,-999.0,74,-99.99,,,0.00,0,weatherlink.com 1.10,2013-04-20 03:40:00,
2013-04-19 22:55:00,53.7,46.0,30.17,SE,146,0.0,-999.0,74,-99.99,,,0.00,0,weatherlink.com 1.10,2013-04-20 03:55:00,
2013-04-19 23:10:00,53.5,46.0,30.17,SE,146,0.0,-999.0,75,-99.99,,,0.00,0,weatherlink.com 1.10,2013-04-20 04:10:00,
2013-04-19 23:25:00,53.1,45.0,30.17,SE,146,0.0,-999.0,75,-99.99,,,0.00,0,weatherlink.com 1.10,2013-04-20 04:25:00,
2013-04-19 23:40:00,52.7,45.0,30.17,SE,146,0.0,-999.0,76,-99.99,,,0.00,0,weatherlink.com 1.10,2013-04-20 04:40:00,
2013-04-19 23:55:00,52.4,45.0,30.17,SE,146,0.0,-999.0,77,-99.99,,,0.00,0,weatherlink.com 1.10,2013-04-20 04:55:00,